#timestamp,LO_Frequency,Hit,StdDev 
1561539615.6,286046999.3,N
1561539635.5,286046999.3,N
1561539655.3,286046998.3,N
1561539675.1,286046999.1,N
1561539695.1,286046998.2,Y
1561539715.7,286046999.9,P
1561539735.5,286047000.8,N
1561539755.3,286047000.7,N
1561539775.2,286047001.2,N
1561539795.6,286047000.4,N
1561539815.4,286047000.5,N
1561539835.2,286046998.6,N
1561539855.1,286046999.1,N
1561539856.0,286046999.1,N
1561539875.8,286046999.1,N
1561539895.3,286046999.4,N
1561539915.1,286046998.5,N
1561539935.8,286047000.7,N
1561539955.7,286047001.1,N
1561539975.5,286047000.9,N
1561539995.4,286047000.1,N
1561540015.2,286047002.0,N
1561540035.0,286047002.8,N
1561540035.9,286047002.8,N
1561540055.8,286047000.3,N
1561540075.6,286047000.4,N
1561540095.4,286047002.8,N
1561540115.3,286047000.2,N
1561540135.1,286047000.0,N
1561540155.9,286047000.2,N
1561540175.7,286047001.6,N
1561540195.5,286047001.6,N
1561540215.4,286047001.8,N
1561540235.2,286047002.1,N
1561540255.1,286046999.7,N
1561540256.0,286046999.7,N
1561540275.8,286047001.6,N
1561540295.6,286047002.4,N
1561540315.5,286047002.3,N
1561540335.3,286047001.4,N
1561540355.1,286047001.3,N
1561540375.9,286047004.4,Y
1561540395.7,286047002.4,P
1561540415.6,286047002.6,P
1561540435.4,286047001.5,N
1561540455.2,286047002.3,Y
1561540475.1,286046998.6,P
1561540476.0,286046998.6,N
1561540495.8,286046998.6,N
1561540515.7,286046998.1,N
1561540535.5,286046999.1,N
1561540555.3,286046998.7,N
1561540575.2,286046999.0,N
1561540595.0,286046998.9,N
1561540595.9,286046998.9,N
1561540615.7,286046998.7,N
1561540635.8,286046999.5,N
1561540655.6,286046997.8,N
1561540675.4,286046997.3,N
1561540695.3,286046997.0,Y
1561540715.1,286047000.8,P
1561540735.9,286047002.4,N
1561540755.7,286047000.8,N
1561540775.5,286047001.0,N
1561540795.4,286047002.6,N
1561540815.2,286047001.8,N
1561540835.0,286047000.0,N
1561540836.0,286047000.0,N
1561540855.8,286047000.0,N
1561540875.6,286047001.2,N
1561540895.5,286047000.5,N
1561540915.3,286047000.8,N
1561540935.1,286047000.9,N
1561540955.9,286047000.6,N
1561540975.7,286047000.6,N
1561540995.6,286047000.3,N
1561541015.4,286047001.2,N
1561541035.2,286046998.6,N
1561541055.1,286047000.6,N
1561541056.0,286047000.6,N
1561541075.8,286047000.8,N
1561541095.7,286047001.1,N
1561541115.5,286047000.5,N
1561541135.3,286047000.7,N
1561541155.2,286046999.9,N
1561541175.0,286046999.9,N
1561541175.9,286046999.9,N
1561541195.8,286047002.8,Y
1561541215.6,286047000.2,P
1561541235.4,286047000.9,P
1561541255.3,286047001.0,P
1561541275.1,286047000.8,N
1561541295.9,286046998.7,Y
1561541315.7,286046996.6,P
1561541335.5,286046995.1,N
1561541355.5,286046996.1,N
1561541375.3,286046995.5,N
1561541395.1,286046995.5,N
1561541415.9,286046995.8,N
1561541435.7,286046995.5,N
1561541455.5,286046995.7,N
1561541475.4,286046997.8,N
1561541495.2,286046997.7,N
1561541515.1,286046997.4,N
1561541516.0,286046997.4,N
1561541535.8,286046997.3,N
1561541555.6,286046996.8,N
1561541575.5,286046996.7,N
1561541595.3,286046995.4,Y
1561541615.1,286046999.3,P
1561541635.9,286046999.3,N
1561541655.7,286046998.6,N
1561541675.6,286046999.2,N
1561541695.4,286046998.8,N
1561541715.2,286046999.4,N
1561541735.1,286046999.4,N
1561541736.0,286046999.4,N
1561541755.8,286046999.2,N
1561541775.6,286046999.5,N
1561541795.5,286046996.5,Y
1561541815.3,286046998.4,P
1561541835.2,286046999.4,N
1561541855.9,286046999.0,N
1561541875.7,286046999.3,N
1561541895.6,286046999.3,N
1561541915.4,286046999.2,N
1561541935.3,286046998.6,Y
1561541955.1,286047000.7,P
1561541956.0,286047000.7,N
1561541975.8,286047001.2,N
1561541995.9,286046998.2,N
1561542015.7,286047000.5,N
1561542035.5,286047000.3,N
1561542055.4,286047000.1,N
1561542075.2,286047000.0,N
1561542095.1,286047000.6,N
1561542096.0,286047000.6,N
1561542115.8,286046999.9,N
1561542135.6,286046999.7,N
1561542155.5,286047002.8,Y
1561542175.3,286047002.7,P
1561542195.1,286047002.4,N
1561542215.9,286047002.2,N
1561542235.7,286047001.6,N
1561542255.6,286047001.7,N
1561542275.4,286047001.6,N
1561542295.2,286047002.1,N
1561542315.1,286047002.6,Y
1561542316.0,286047002.6,P
1561542335.8,286046998.5,P
1561542355.7,286046998.7,N
1561542375.5,286046998.3,N
1561542395.3,286046998.7,N
1561542415.2,286046998.5,N
1561542435.0,286046998.4,N
1561542435.9,286046998.4,N
1561542455.8,286046998.3,N
1561542475.6,286046999.0,N
1561542495.4,286047001.1,N
1561542515.3,286047000.9,N
1561542535.1,286047002.3,N
1561542555.8,286047000.8,N
1561542575.7,286047000.7,N
1561542595.5,286046999.9,N
1561542615.4,286047000.4,N
1561542635.2,286046998.1,N
1561542655.0,286046998.2,N
1561542655.9,286046998.2,N
1561542675.8,286047001.2,N
1561542695.6,286046998.3,N
1561542715.4,286046998.8,N
1561542735.3,286047001.2,N
1561542755.1,286047000.3,N
1561542775.9,286047000.1,N
1561542795.7,286047000.3,N
1561542815.5,286047002.7,N
1561542835.4,286047002.0,N
1561542855.3,286047002.1,N
1561542875.1,286047000.0,N
1561542895.9,286046998.1,N
1561542915.7,286047000.9,N
1561542935.5,286047001.0,N
1561542955.4,286047000.9,N
1561542975.2,286047000.7,N
1561542995.0,286047000.7,N
1561542995.9,286047000.7,N
1561543015.8,286047000.6,N
1561543035.6,286047000.8,N
1561543055.5,286046998.6,N
1561543075.3,286046998.5,N
1561543095.1,286046998.1,N
1561543115.9,286047000.4,N
1561543135.7,286047001.0,N
1561543155.5,286047001.2,N
1561543175.4,286046998.6,N
1561543195.2,286046998.6,N
